カタログに戻る

NIMBUS 2 DEB

運用中LEO
NORAD 28609·DEBRIS·🇺🇸 United States

打ち上げ May 15, 1966 から Vandenberg Space Force Base

Loading…

次のパス (今後24時間)

TLE

経年Source: Space-Track

元期: Sep 10, 2026, 00:00 UTC

1 28609U 66040Y   26253.00019854  .00000994  00000-0  16137-2 0  9998
2 28609 100.3363 171.8311 0050367 116.4782 303.2472 13.50461478646630

AllMySatでNIMBUS 2 DEBをリアルタイム追跡

Download on the App Store